User: anonymous   Login
Location: ??
(35.5138°N, 139.6953°E)
Time: 17:43:02
(UTC+00:00)
Language:

Cosmos 1900 - Orbit

View from above orbital plane
View from above orbital plane
View from above satellite
View from above satellite

Ground track
Ground track

The orbit data is extracted from the following two-line orbital elements,

1 18665U 87101A   20228.41399278 -.00000066  00000-0  89566-5 0  9992
2 18665  66.0827 216.2818 0041495 321.5115  38.3032 14.54484978738388
Epoch (UTC): 15 August 2020 09:56:08
Eccentricity: 0.0041495
inclination: 66.0827°
perigee height: 681 km
apogee height: 740 km
right ascension of ascending node: 216.2818°
argument of perigee: 321.5115°
revolutions per day: 14.54484978
mean anomaly at epoch: 38.3032°
orbit number at epoch: 73838

The dashed part of the orbit path shows where the satellite is in the earth's shadow,  

DLR